Flag for Germany Weather past 2 weeks in Neunkirchen (Saar), Saarland, Germany

36 °F

Passing clouds.

Feels Like: 27 °F
Forecast: 35 / 48 °F
Wind: 12 mph from Southwest

Location: Saarbruecken / Ensheim

Current Time: Nov 28, 2015 at 10:12:30 PM

Latest Report: Nov 28, 2015 at 9:20 PM

Visibility: N/A

Pressure: 30.12 "Hg

Humidity: 87%

Dew point: 32 °F

Location of Neunkirchen (Saar)Location

Historic Weather in Neunkirchen (Saar) — Graph


Neunkirchen (Saar) temperature yesterday

Maximum temperature yesterday: 32 °F (at 12:50 PM)
Minimum temperature yesterday: 25 °F (at 5:50 AM)
Average temperature yesterday: 29 °F

Past Weeks' High & Low Weather Summary

High57 °F (Nov 18, 1:20 AM)100% (Nov 17, 9:20 PM)30.45 "Hg (Nov 17, 9:20 PM)
Low25 °F (Nov 27, 5:50 AM)62% (Nov 14, 1:20 PM)29.42 "Hg (Nov 21, 9:50 AM)
Average41 °F89%29.99 "Hg
* Reported Nov 13 8:20 PM — Nov 28 8:50 PM, Neunkirchen (Saar), Weather by CustomWeather, © 2015

Note: Actual official high and low records may vary slightly from our data, if they occured in-between our weather recording intervals... More about our weather records


Neunkirchen (Saar) weather history for previous 24 hours

Time TempWeatherWind HumidityBarometerVisibility
8:50 PM
Sat, Nov 28
36 °FPassing clouds.10 mph81%30.12 "HgN/A
8:20 PM36 °FPassing clouds.13 mph81%30.09 "HgN/A
7:50 PM37 °FPassing clouds.13 mph75%30.09 "HgN/A
7:20 PM37 °FPassing clouds.12 mph75%30.09 "HgN/A
6:50 PM37 °FPassing clouds.9 mph75%30.12 "HgN/A
6:20 PM37 °FPassing clouds.12 mph75%30.09 "HgN/A
5:50 PM37 °FClear.9 mph75%30.09 "Hg10 mi
5:20 PM37 °FClear.9 mph75%30.09 "Hg10 mi
4:50 PM37 °FPassing clouds.8 mph75%30.09 "HgN/A
4:20 PM39 °FPassing clouds.10 mph70%30.09 "HgN/A
3:50 PM39 °FScattered clouds.16 mph70%30.09 "HgN/A
3:20 PM41 °FPartly sunny.15 mph70%30.07 "HgN/A
2:50 PM41 °FScattered clouds.17 mph70%30.07 "HgN/A
2:20 PM41 °FScattered clouds.15 mph70%30.04 "HgN/A
1:50 PM41 °FPartly sunny.9 mph76%30.04 "HgN/A
1:20 PM39 °FPartly sunny.9 mph81%30.04 "HgN/A
12:50 PM39 °FPartly sunny.13 mph75%30.04 "HgN/A
12:20 PM39 °FPartly sunny.14 mph81%30.01 "HgN/A
11:50 AM39 °FPartly sunny.13 mph87%30.01 "HgN/A
11:20 AM39 °FPartly sunny.9 mph93%30.01 "HgN/A
10:50 AM39 °FPartly sunny.12 mph93%29.98 "HgN/A
10:20 AM37 °FPartly sunny.10 mph100%29.98 "HgN/A
9:50 AM37 °FPartly sunny.9 mph100%29.95 "Hg5 mi
9:20 AM36 °FDrizzle. Partly sunny.10 mph100%29.95 "Hg4 mi
8:50 AM36 °FFog.12 mph100%29.92 "Hg3 mi
8:20 AM34 °FFog.9 mph100%29.89 "Hg2 mi
7:20 AM32 °FIce fog.10 mph100%29.86 "Hg2 mi
6:50 AM32 °FLight rain. Ice fog.10 mph100%29.86 "Hg1 mi
6:20 AM32 °FLight rain. Ice fog.10 mph100%29.86 "Hg1 mi
5:50 AM32 °FDrizzle. Ice fog.13 mph100%29.83 "Hg1 mi
5:20 AM32 °FLight freezing rain. Ice fog.12 mph100%29.86 "Hg3 mi
4:50 AM32 °FLight freezing rain. Ice fog.13 mph100%29.83 "Hg3 mi
4:20 AM32 °FLight rain. Ice fog.15 mph100%29.83 "Hg1 mi
3:50 AM32 °FDrizzle. Ice fog.12 mph100%29.86 "Hg1 mi
3:20 AM32 °FLow clouds.14 mph93%29.86 "Hg3 mi
2:50 AM32 °FPassing clouds.12 mph93%29.86 "Hg3 mi
2:20 AM32 °FLow clouds.12 mph93%29.89 "Hg2 mi
1:50 AM30 °FLow clouds.12 mph100%29.89 "Hg2 mi
1:20 AM30 °FLow clouds.10 mph100%29.89 "Hg2 mi
12:50 AM30 °FPassing clouds.8 mph100%29.92 "Hg2 mi
11:50 PM
Fri, Nov 27
30 °FLow clouds.8 mph100%29.92 "Hg1 mi
11:20 PM30 °FIce fog.7 mph100%29.92 "Hg1 mi
10:50 PM30 °FIce fog.9 mph100%29.95 "Hg0 mi
10:20 PM30 °FIce fog.9 mph100%29.95 "Hg0 mi
Weather by CustomWeather, © 2015

See weather overviewHow to use our weather pages